Wrangell, AK

2:35 AM AKDT on August 20, 2017 (GMT -0800)
Wrangell

Weather History for PAWG - January, 2014

Change the Weather History Date:

Monday, January 27, 2014

  Actual Average Record
Temperature  
Mean Temperature 36 °F -  
Max Temperature 41 °F 35 °F 51 °F (2016)
Min Temperature 32 °F 25 °F 5 °F (1972)
Degree Days  
Heating Degree Days 28    
Moisture  
Dew Point 31 °F    
Average Humidity 80    
Maximum Humidity 93    
Minimum Humidity 70    
Precipitation  
Precipitation 0.00 in - - ()
Sea Level Pressure  
Sea Level Pressure 30.06 in    
Wind  
Wind Speed 3 mph (SSW)    
Max Wind Speed 8 mph    
Max Gust Speed -    
Visibility 10 miles    
Events      
Averages and records for this station are not official NWS values.
T = Trace of Precipitation, MM = Missing Value Source: NWS Daily Summary

Daily Weather History Graph

Daily Weather History Graph

Search for Another Location

Airport or City:

Trip Planner

Search our weather history database for the weather conditions in past years. The results will help you decide how hot, cold, wet, or windy it might be!

Date:

Astronomy

Jan. 27, 2014 Rise Set
Actual Time 7:55 AM AKST 4:10 PM AKST
Civil Twilight 7:12 AM AKST 4:52 PM AKST
Nautical Twilight 6:26 AM AKST 5:39 PM AKST
Astronomical Twilight 5:41 AM AKST 6:23 PM AKST
Moon 4:53 AM AKST (1/27) 12:53 PM AKST (1/27)
Length of Visible Light 9h 40m
Length of Day
8h 14m
Waning Crescent, 13% of the Moon is Illuminated
Jan 27
Waning Crescent
Jan 30
New
Feb 6
First Quarter
Feb 14
Full
Feb 22
Last Quarter

Hourly Weather History & Observations

Time (AKST) Temp. Windchill Dew Point Humidity Pressure Visibility Wind Dir Wind Speed Gust Speed Precip Events Conditions
12:16 AM 32.0 °F - 28.4 °F 87% 30.04 in 10.0 mi Calm Calm - N/A   Clear
12:36 AM 32.0 °F 27.5 °F 28.4 °F 87% 30.03 in 10.0 mi SE 4.6 mph - N/A   Clear
12:56 AM 33.8 °F 28.6 °F 28.4 °F 81% 30.03 in 10.0 mi SE 5.8 mph - N/A   Clear
1:16 AM 33.8 °F 29.6 °F 28.4 °F 81% 30.02 in 10.0 mi ESE 4.6 mph - N/A   Clear
1:36 AM 33.8 °F 29.6 °F 30.2 °F 87% 30.03 in 0.8 mi ESE 4.6 mph - N/A   Mostly Cloudy
1:56 AM 33.8 °F 29.6 °F 28.4 °F 81% 30.03 in 3.0 mi ESE 4.6 mph - N/A   Mostly Cloudy
2:16 AM 33.8 °F 27.0 °F 30.2 °F 87% 30.03 in 10.0 mi SSE 8.1 mph - N/A   Partly Cloudy
2:36 AM 33.8 °F 30.8 °F 30.2 °F 87% 30.04 in 10.0 mi SW 3.5 mph - N/A   Clear
2:56 AM 35.6 °F 32.8 °F 30.2 °F 81% 30.04 in 10.0 mi NNE 3.5 mph - N/A   Clear
3:16 AM 35.6 °F - 30.2 °F 81% 30.04 in 10.0 mi Calm Calm - N/A   Clear
3:36 AM 33.8 °F 30.8 °F 30.2 °F 87% 30.04 in 10.0 mi SW 3.5 mph - N/A   Clear
3:56 AM 33.8 °F 30.8 °F 28.4 °F 81% 30.05 in 10.0 mi SE 3.5 mph - N/A   Clear
4:16 AM 33.8 °F - 30.2 °F 87% 30.04 in 10.0 mi Calm Calm - N/A   Clear
4:36 AM 35.6 °F 32.8 °F 28.4 °F 75% 30.05 in 10.0 mi SW 3.5 mph - N/A   Clear
4:56 AM 33.8 °F 30.8 °F 28.4 °F 81% 30.06 in 10.0 mi SE 3.5 mph - N/A   Clear
5:16 AM 33.8 °F 29.6 °F 28.4 °F 81% 30.06 in 10.0 mi ESE 4.6 mph - N/A   Clear
5:36 AM 33.8 °F 27.7 °F 28.4 °F 81% 30.05 in 10.0 mi ESE 6.9 mph - N/A   Clear
5:56 AM 33.8 °F 28.6 °F 28.4 °F 81% 30.05 in 10.0 mi SW 5.8 mph - N/A   Clear
6:16 AM 35.6 °F - 30.2 °F 81% 30.05 in 10.0 mi Calm Calm - N/A   Clear
6:36 AM 33.8 °F 30.8 °F 30.2 °F 87% 30.05 in 10.0 mi SSE 3.5 mph - N/A   Clear
6:56 AM 33.8 °F 29.6 °F 28.4 °F 81% 30.05 in 10.0 mi South 4.6 mph - N/A   Scattered Clouds
7:16 AM 33.8 °F 28.6 °F 30.2 °F 87% 30.05 in 10.0 mi SE 5.8 mph - N/A   Scattered Clouds
7:36 AM 33.8 °F - 30.2 °F 87% 30.06 in 10.0 mi Calm Calm - N/A   Scattered Clouds
7:56 AM 35.6 °F 30.7 °F 30.2 °F 81% 30.06 in 10.0 mi ENE 5.8 mph - N/A   Mostly Cloudy
8:16 AM 35.6 °F - 30.2 °F 81% 30.06 in 10.0 mi Calm Calm - N/A   Mostly Cloudy
8:36 AM 35.6 °F - 30.2 °F 81% 30.07 in 10.0 mi Calm Calm - N/A   Mostly Cloudy
8:56 AM 35.6 °F - 32.0 °F 87% 30.07 in 10.0 mi Calm Calm - N/A   Overcast
9:16 AM 35.6 °F - 32.0 °F 87% 30.07 in 10.0 mi Calm Calm - N/A   Overcast
9:36 AM 35.6 °F 32.8 °F 32.0 °F 87% 30.07 in 10.0 mi ESE 3.5 mph - N/A   Overcast
9:56 AM 35.6 °F - 30.2 °F 81% 30.07 in 10.0 mi Calm Calm - N/A   Overcast
10:16 AM 35.6 °F - 33.8 °F 93% 30.07 in 10.0 mi Calm Calm - N/A   Overcast
10:36 AM 37.4 °F - 33.8 °F 87% 30.07 in 10.0 mi Calm Calm - N/A   Overcast
10:56 AM 37.4 °F 34.9 °F 33.8 °F 87% 30.07 in 10.0 mi ENE 3.5 mph - N/A   Mostly Cloudy
11:16 AM 37.4 °F 34.9 °F 33.8 °F 87% 30.07 in 10.0 mi SE 3.5 mph - N/A   Mostly Cloudy
11:36 AM 39.2 °F - 33.8 °F 81% 30.07 in 10.0 mi Calm Calm - N/A   Mostly Cloudy
11:56 AM 41.0 °F - 35.6 °F 81% 30.06 in 10.0 mi Calm Calm - N/A   Mostly Cloudy
12:16 PM 41.0 °F - 33.8 °F 76% 30.07 in 10.0 mi Calm Calm - N/A   Mostly Cloudy
12:36 PM 41.0 °F 39.0 °F 33.8 °F 76% 30.06 in 10.0 mi East 3.5 mph - N/A   Mostly Cloudy
12:56 PM 39.2 °F 35.9 °F 32.0 °F 75% 30.06 in 10.0 mi South 4.6 mph - N/A   Mostly Cloudy
1:16 PM 39.2 °F - 33.8 °F 81% 30.06 in 10.0 mi Calm Calm - N/A   Mostly Cloudy
1:36 PM 39.2 °F 37.0 °F 30.2 °F 70% 30.06 in 10.0 mi NW 3.5 mph - N/A   Mostly Cloudy
1:56 PM 39.2 °F 35.0 °F 30.2 °F 70% 30.07 in 10.0 mi NW 5.8 mph - N/A   Mostly Cloudy
2:16 PM 39.2 °F - 32.0 °F 75% 30.07 in 10.0 mi Calm Calm - N/A   Mostly Cloudy
2:36 PM 39.2 °F 35.9 °F 32.0 °F 75% 30.07 in 10.0 mi WNW 4.6 mph - N/A   Mostly Cloudy
2:56 PM 39.2 °F 35.0 °F 30.2 °F 70% 30.07 in 10.0 mi West 5.8 mph - N/A   Mostly Cloudy
3:16 PM 39.2 °F - 32.0 °F 75% 30.07 in 10.0 mi Calm Calm - N/A   Mostly Cloudy
3:36 PM 39.2 °F 35.9 °F 32.0 °F 75% 30.07 in 10.0 mi WNW 4.6 mph - N/A   Mostly Cloudy
3:56 PM 39.2 °F - 30.2 °F 70% 30.07 in 10.0 mi Calm Calm - N/A   Mostly Cloudy
4:16 PM 37.4 °F - 30.2 °F 75% 30.07 in 10.0 mi Calm Calm - N/A   Mostly Cloudy
4:36 PM 37.4 °F 34.9 °F 30.2 °F 75% 30.07 in 10.0 mi WNW 3.5 mph - N/A   Mostly Cloudy
4:56 PM 37.4 °F - 30.2 °F 75% 30.07 in 10.0 mi Calm Calm - N/A   Mostly Cloudy
5:16 PM 37.4 °F - 32.0 °F 81% 30.07 in 10.0 mi Calm Calm - N/A   Mostly Cloudy
5:36 PM 39.2 °F - 33.8 °F 81% 30.07 in 10.0 mi Calm Calm - N/A   Mostly Cloudy
5:56 PM 37.4 °F 32.8 °F 30.2 °F 75% 30.07 in 10.0 mi WNW 5.8 mph - N/A   Overcast
6:16 PM 39.2 °F 35.9 °F 32.0 °F 75% 30.07 in 10.0 mi NW 4.6 mph - N/A   Overcast
6:36 PM 39.2 °F - 33.8 °F 81% 30.07 in 10.0 mi Calm Calm - N/A   Overcast
6:56 PM 39.2 °F - 32.0 °F 75% 30.08 in 10.0 mi Calm Calm - N/A   Overcast
7:16 PM 39.2 °F 35.0 °F 30.2 °F 70% 30.08 in 10.0 mi West 5.8 mph - N/A   Overcast
7:36 PM 37.4 °F 34.9 °F 30.2 °F 75% 30.08 in 10.0 mi NW 3.5 mph - N/A   Overcast
7:56 PM 37.4 °F 34.9 °F 30.2 °F 75% 30.08 in 10.0 mi WNW 3.5 mph - N/A   Overcast
8:16 PM 39.2 °F - 32.0 °F 75% 30.08 in 10.0 mi Calm Calm - N/A   Overcast
8:36 PM 37.4 °F 33.8 °F 30.2 °F 75% 30.08 in 10.0 mi NW 4.6 mph - N/A   Overcast
8:56 PM 39.2 °F - 32.0 °F 75% 30.08 in 10.0 mi Calm Calm - N/A   Overcast
9:16 PM 39.2 °F - 32.0 °F 75% 30.09 in 10.0 mi Calm Calm - N/A   Overcast
9:36 PM 39.2 °F - 33.8 °F 81% 30.09 in 10.0 mi Calm Calm - N/A   Overcast
9:56 PM 37.4 °F - 33.8 °F 87% 30.09 in 10.0 mi Calm Calm - N/A   Overcast
10:16 PM 37.4 °F - 32.0 °F 81% 30.09 in 10.0 mi Calm Calm - N/A   Overcast
10:36 PM 39.2 °F - 33.8 °F 81% 30.09 in 10.0 mi Calm Calm - N/A   Overcast
10:56 PM 39.2 °F 34.2 °F 32.0 °F 75% 30.10 in 10.0 mi SW 6.9 mph - N/A   Overcast
11:16 PM 37.4 °F 34.9 °F 30.2 °F 75% 30.10 in 10.0 mi NW 3.5 mph - N/A   Overcast
11:36 PM 39.2 °F 37.0 °F 32.0 °F 75% 30.10 in 10.0 mi NW 3.5 mph - N/A   Overcast
11:56 PM 39.2 °F 37.0 °F 32.0 °F 75% 30.11 in 10.0 mi NNW 3.5 mph - N/A   Overcast